{"data":{"norad_id":68122,"epoch":"2026-09-20T04:32:18.716064Z","epoch_age_seconds":83008,"freshness":"FRESH","line1":"1 68122U 26044X   26263.18910551  .00021436  00000+0  66421-3 0  9991","line2":"2 68122  97.2857 222.1983 0001857  92.1376 268.0079 15.33453686 31397","mean_motion":15.33453686,"eccentricity":0.0001857,"inclination_deg":97.2857,"raan_deg":222.1983,"arg_perigee_deg":92.1376,"mean_anomaly_deg":268.0079,"bstar":0.00066421,"rev_number":3139,"period_min":93.90567274035,"perigee_km":464.24646456594,"apogee_km":466.78819778454,"semimajor_km":6843.6543311752,"source":"CELESTRAK","updated_at":"2026-09-20T09:00:43.789862Z"}}